Flag for Pakistan Weather past 2 weeks in Narowal, Pakistan

Now
41 °F

Fog.


Feels Like: 41 °F
Forecast: 41 / 62 °F
Wind: No wind

Location: Amritsar Airport

Current Time: Jan 27, 2015 at 2:13:17 AM

Latest Report: Jan 27, 2015 at 1:30 AM


Visibility: 0 mi

Pressure: 30.12 "Hg

Humidity: 100%

Dew point: 41 °F

Location of NarowalLocation

Historic Weather in Narowal — Graph

°F

Narowal temperature yesterday

Maximum temperature yesterday: 59 °F (at 2:00 PM)
Minimum temperature yesterday: 45 °F (at 11:00 PM)
Average temperature yesterday: 52 °F

Past Weeks' High & Low Weather Summary

 TemperatureHumidityPressure
High68 °F (Jan 17, 1:30 PM)100% (Jan 11, 11:00 PM)30.24 "Hg (Jan 11, 11:00 PM)
Low37 °F (Jan 18, 6:30 AM)49% (Jan 15, 3:30 PM)29.95 "Hg (Jan 13, 4:00 PM)
Average53 °F88%30.10 "Hg
* Reported Jan 11 11:00 PM — Jan 26 11:30 PM, Narowal, Weather by CustomWeather, © 2014

Note: Actual official high and low records may vary slightly from our data, if they occured in-between our weather recording intervals... More about our weather records

Advertising

Narowal weather history for previous 24 hours

 ConditionsComfort  
Time TempWeatherWind HumidityBarometerVisibility
11:30 PM
Jan 26
45 °FFog.No wind100%30.15 "Hg1 mi
11:00 PM45 °FFog.No wind100%30.15 "Hg1 mi
10:30 PM46 °FFog.No wind100%30.12 "Hg1 mi
10:00 PM46 °FFog.No wind100%30.12 "Hg1 mi
9:30 PM46 °FFog.No wind93%30.12 "Hg2 mi
9:00 PM46 °FFog.No wind93%30.12 "Hg2 mi
8:30 PM48 °FFog.No wind94%30.12 "Hg2 mi
8:00 PM48 °FFog.No wind87%30.12 "Hg2 mi
7:00 PM50 °FFog.No wind88%30.12 "Hg1 mi
6:30 PM52 °FFog.No wind82%30.09 "Hg1 mi
6:00 PM54 °FFog.2 mph82%30.09 "Hg2 mi
5:30 PM55 °FFog.2 mph77%30.09 "Hg2 mi
5:00 PM57 °FScattered clouds.3 mph72%30.09 "Hg2 mi
4:30 PM57 °FScattered clouds.2 mph67%30.09 "Hg2 mi
4:00 PM59 °FScattered clouds.5 mph63%30.09 "Hg2 mi
3:30 PM59 °FScattered clouds.2 mph63%30.12 "Hg2 mi
3:00 PM59 °FScattered clouds.7 mph59%30.12 "Hg2 mi
2:30 PM59 °FScattered clouds.3 mph59%30.12 "Hg2 mi
2:00 PM59 °FScattered clouds.5 mph63%30.15 "Hg2 mi
1:00 PM57 °FScattered clouds.No wind67%30.18 "Hg2 mi
12:30 PM57 °FScattered clouds.5 mph67%30.18 "Hg2 mi
12:00 PM57 °FFog.5 mph72%30.21 "Hg2 mi
11:30 AM57 °FFog.2 mph72%30.21 "Hg2 mi
10:30 AM54 °FFog.No wind77%30.24 "Hg1 mi
10:00 AM54 °FFog.No wind77%30.24 "Hg1 mi
9:30 AM54 °FFog.2 mph82%30.21 "Hg1 mi
9:00 AM52 °FFog.No wind88%30.21 "Hg1 mi
8:30 AM50 °FFog.No wind94%30.21 "Hg1 mi
8:00 AM50 °FFog.No wind94%30.18 "Hg1 mi
7:30 AM50 °FFog.No wind88%30.18 "Hg1 mi
7:00 AM50 °FFog.No wind88%30.18 "Hg1 mi
6:30 AM48 °FFog.No wind94%30.15 "Hg1 mi
6:00 AM50 °FFog.No wind88%30.15 "Hg1 mi
5:30 AM50 °FFog.No wind88%30.12 "Hg1 mi
4:30 AM50 °FFog.No wind94%30.15 "Hg1 mi
4:00 AM50 °FFog.No wind94%30.15 "Hg1 mi
3:30 AM50 °FFog.No wind94%30.15 "Hg1 mi
3:00 AM50 °FFog.No wind94%30.15 "Hg1 mi
2:00 AM52 °FFog.No wind88%30.15 "Hg1 mi
Weather by CustomWeather, © 2014

See weather overviewHow to use our weather pages